GW4368 Weather Reports


time (UTC)temp
C
wind
direction
speed
KPH
gust
KPH
rain 1hr
cm
rain 24hr
cm
rain mn
cm
humidity
%
barometer
mb
20260503200210 22 332 4.8 8.0 0.00 0.03 0.03 38 1004.8
20260503195707 21 332 3.2 3.2 0.00 0.03 0.03 40 1004.9
20260503195204 21 332 3.2 4.8 0.00 0.03 0.03 40 1005.0
20260503194701 21 332 6.4 9.7 0.00 0.03 0.03 40 1005.2
20260503194156 22 332 4.8 9.7 0.00 0.03 0.03 38 1005.2
20260503193653 23 332 0.0 0.0 0.00 0.03 0.03 36 1005.2
20260503193149 22 332 0.0 0.0 0.00 0.03 0.03 38 1005.3
20260503192645 22 332 1.6 3.2 0.00 0.03 0.03 39 1005.6
20260503192140 23 332 1.6 1.6 0.00 0.03 0.03 38 1005.7
20260503191637 22 332 3.2 4.8 0.00 0.03 0.03 38 1005.7
20260503191134 21 332 0.0 0.0 0.00 0.03 0.03 37 1006.0
20260503190631 22 332 0.0 1.6 0.00 0.03 0.03 38 1006.1
20260503190128 21 332 0.0 1.6 0.00 0.03 0.03 38 1006.0
20260503185625 21 332 8.0 9.7 0.00 0.03 0.03 37 1006.2
20260503185120 21 332 4.8 8.0 0.00 0.03 0.03 38 1006.2
20260503184615 21 331 0.0 0.0 0.00 0.03 0.03 37 1006.3
20260503184112 21 331 1.6 4.8 0.00 0.03 0.03 39 1006.6
20260503183609 21 332 4.8 8.0 0.00 0.03 0.03 38 1006.5
20260503183106 21 331 1.6 3.2 0.00 0.03 0.03 40 1006.7
20260503182604 20 332 8.0 9.7 0.00 0.03 0.03 39 1006.7
20260503182102 21 332 0.0 1.6 0.00 0.03 0.03 41 1006.6
20260503181559 20 331 11.3 12.9 0.00 0.03 0.03 40 1006.7
20260503181055 21 331 6.4 12.9 0.00 0.03 0.03 36 1006.7
20260503180552 21 331 1.6 3.2 0.00 0.03 0.03 40 1006.7
20260503180050 20 331 6.4 9.7 0.00 0.03 0.03 44 1007.0
20260503175547 20 331 0.0 0.0 0.00 0.03 0.03 43 1006.8
20260503175044 20 331 8.0 8.0 0.00 0.03 0.03 41 1007.1
20260503174541 21 331 1.6 3.2 0.00 0.03 0.03 44 1007.1
20260503174037 20 331 1.6 1.6 0.00 0.03 0.03 42 1007.1
20260503173532 20 332 0.0 0.0 0.00 0.03 0.03 44 1007.0
20260503173029 18 331 1.6 3.2 0.00 0.03 0.03 48 1007.1
20260503172527 18 331 8.0 11.3 0.00 0.03 0.03 44 1007.2
20260503172024 20 331 4.8 8.0 0.00 0.03 0.03 45 1006.8
20260503171520 20 331 4.8 8.0 0.00 0.03 0.03 44 1007.2
20260503171018 19 331 1.6 3.2 0.00 0.03 0.03 50 1007.4
20260503170514 20 331 4.8 4.8 0.00 0.03 0.03 47 1007.5
20260503150906 17 330 0.0 0.0 0.00 0.03 0.03 51 1008.5
20260503150403 16 331 1.6 1.6 0.00 0.03 0.03 52 1008.4
20260503131256 13 330 4.8 4.8 0.00 0.03 0.03 68 1007.7
20260503130753 13 330 1.6 1.6 0.00 0.03 0.03 68 1007.9
20260503130251 12 330 3.2 4.8 0.00 0.03 0.03 67 1007.9
20260503120217 10 330 3.2 4.8 0.00 0.03 0.03 99 1007.6
20260503110644 7 330 0.0 0.0 0.00 0.03 0.03 99 1006.5
20260503110141 7 330 0.0 0.0 0.00 0.03 0.03 99 1006.6
20260503100108 8 330 0.0 1.6 0.00 0.03 0.03 99 1005.8
20260503081458 8 330 0.0 0.0 0.00 0.03 0.03 99 1004.7
20260503080954 8 330 0.0 0.0 0.00 0.03 0.03 99 1004.7
20260503080451 8 330 0.0 0.0 0.00 0.03 0.03 99 1004.6
20260503072927 8 330 0.0 0.0 0.00 0.03 0.03 99 1004.5
20260503072425 8 330 0.0 0.0 0.00 0.03 0.03 99 1004.4
20260503071922 8 330 0.0 0.0 0.00 0.03 0.03 99 1004.4
20260503071419 8 330 0.0 0.0 0.00 0.03 0.03 99 1004.3
20260503070915 8 330 0.0 0.0 0.00 0.03 0.03 99 1004.2
20260503070412 8 330 0.0 0.0 0.00 0.03 0.03 99 1004.2
20260503060338 8 330 0.0 0.0 0.13 0.03 0.03 99 1004.0
20260503054826 9 330 0.0 0.0 0.00 0.00 0.00 99 1004.1
20260503054321 9 330 0.0 0.0 0.00 0.00 0.00 99 1004.0
20260503053820 9 330 0.0 0.0 0.00 0.00 0.00 99 1004.1
20260503053318 10 330 0.0 0.0 0.00 0.00 0.00 99 1004.0
20260503052814 10 330 0.0 0.0 0.00 0.00 0.00 99 1004.0
20260503052311 10 330 0.0 0.0 0.00 0.00 0.00 99 1003.9
20260503051806 10 330 0.0 0.0 0.00 0.00 0.00 99 1004.1
20260503051303 10 330 0.0 0.0 0.00 0.00 0.00 99 1003.8
20260503050800 10 330 0.0 0.0 0.00 0.00 0.00 99 1003.8
20260503050256 10 330 0.0 0.0 0.00 0.00 0.00 99 1003.9
20260503045754 10 330 3.2 3.2 0.00 0.00 0.00 99 1003.9
20260503045252 10 330 3.2 3.2 0.00 0.00 0.00 99 1003.6
20260503044747 10 330 0.0 0.0 0.00 0.00 0.00 99 1003.4
20260503044244 10 330 0.0 0.0 0.00 0.00 0.00 99 1003.3
20260503043737 10 330 0.0 0.0 0.00 0.00 0.00 99 1003.4
20260503043233 10 330 0.0 0.0 0.00 0.00 0.00 99 1003.3
20260503042729 10 330 0.0 0.0 0.00 0.00 0.00 99 1003.1
20260503042226 10 330 0.0 0.0 0.00 0.00 0.00 99 1003.4
20260503041721 10 330 0.0 0.0 0.00 0.00 0.00 99 1003.0
20260503041220 10 330 0.0 0.0 0.00 0.00 0.00 98 1003.1
20260503040717 11 330 0.0 0.0 0.00 0.00 0.00 99 1003.0
20260503040214 11 330 0.0 0.0 0.00 0.00 0.00 99 1003.2
20260503035711 11 330 0.0 0.0 0.00 1.32 1.32 98 1003.0
20260503035208 11 330 1.6 1.6 0.00 1.32 1.32 98 1002.9
20260503034706 11 330 0.0 0.0 0.00 1.32 1.32 98 1003.2
20260503034202 11 330 0.0 0.0 0.00 1.32 1.32 98 1003.3
20260503033700 11 330 0.0 0.0 0.00 1.32 1.32 98 1003.3
20260503033157 11 330 0.0 0.0 0.00 1.32 1.32 98 1003.4
20260503032655 11 330 0.0 0.0 0.00 1.32 1.32 97 1003.4
20260503032154 11 330 0.0 0.0 0.00 1.32 1.32 97 1003.3
20260503031650 11 330 0.0 0.0 0.00 1.32 1.32 95 1003.4
20260503031149 11 330 0.0 0.0 0.00 1.32 1.32 95 1003.2
20260503030644 11 330 0.0 0.0 0.00 1.32 1.32 94 1003.6
20260503030141 11 330 0.0 0.0 0.00 1.32 1.32 94 1003.7
20260503025638 11 330 0.0 0.0 0.00 1.32 1.32 93 1003.4
20260503025136 11 330 0.0 0.0 0.00 1.32 1.32 92 1003.4
20260503024632 11 330 0.0 0.0 0.00 1.32 1.32 93 1003.4
20260503024129 11 330 0.0 0.0 0.00 1.32 1.32 94 1003.3
20260503023627 11 330 0.0 0.0 0.00 1.32 1.32 95 1003.3
20260503023123 11 330 0.0 0.0 0.00 1.32 1.32 96 1003.2
20260503022619 11 330 0.0 0.0 0.00 1.32 1.32 98 1003.0
20260503022114 11 330 0.0 1.6 0.00 1.32 1.32 98 1003.3
20260503021611 11 330 1.6 1.6 0.00 1.32 1.32 99 1002.8
20260503021108 11 330 0.0 0.0 0.00 1.32 1.32 99 1002.4
20260503020605 11 330 1.6 1.6 0.00 1.32 1.32 99 1002.5
20260503015559 11 330 0.0 0.0 0.00 1.32 1.32 99 1002.2
20260503015056 11 330 0.0 0.0 0.00 1.32 1.32 99 1001.9
20260503014551 11 330 0.0 0.0 0.00 1.32 1.32 98 1001.8
20260503014050 11 330 0.0 0.0 0.00 1.32 1.32 98 1001.9
20260503013547 11 330 0.0 0.0 0.00 1.32 1.32 98 1001.7
20260503013044 11 330 0.0 0.0 0.00 1.32 1.32 98 1001.7
20260503012542 10 330 0.0 0.0 0.00 1.32 1.32 98 1001.7
20260503012038 10 330 0.0 0.0 0.00 1.32 1.32 98 1001.7
20260503011534 10 330 0.0 0.0 0.00 1.32 1.32 98 1001.5
20260503011032 10 330 0.0 0.0 0.00 1.32 1.32 97 1001.1
20260503010528 11 330 0.0 0.0 0.00 1.32 1.32 97 1001.4
20260503010026 11 330 0.0 0.0 0.00 1.32 1.32 97 1001.1
20260503005523 11 330 0.0 0.0 0.00 1.32 1.32 97 1001.0
20260503005020 11 330 0.0 0.0 0.00 1.32 1.32 97 1001.1
20260503004510 11 330 0.0 0.0 0.00 1.32 1.32 96 1001.1
20260503004009 11 330 0.0 0.0 0.00 1.32 1.32 96 1001.1
20260503003505 11 330 0.0 0.0 0.00 1.32 1.32 96 1001.0
20260503003003 11 330 0.0 0.0 0.00 1.32 1.32 96 1000.9
20260503002500 11 330 0.0 0.0 0.00 1.32 1.32 95 1000.7
20260503001955 11 330 0.0 0.0 0.00 1.32 1.32 95 1000.4
20260503001452 11 330 0.0 0.0 0.00 1.32 1.32 94 1000.6
20260503000949 11 330 0.0 0.0 0.00 1.32 1.32 93 1000.6
20260503000446 11 330 0.0 0.0 0.00 1.32 1.32 93 1000.6
20260502235944 11 330 0.0 0.0 0.00 1.32 1.32 91 1000.6
20260502235441 12 330 0.0 0.0 0.00 1.32 1.32 90 1000.3
20260502234938 12 330 0.0 0.0 0.00 1.32 1.32 89 1000.4
20260502234429 12 330 0.0 0.0 0.00 1.32 1.32 87 1000.2
20260502233926 13 330 0.0 0.0 0.00 1.32 1.32 84 1000.1
20260502233421 13 330 0.0 0.0 0.00 1.32 1.32 82 1000.3
20260502232918 13 330 0.0 0.0 0.00 1.32 1.32 80 1000.2
20260502232409 13 330 0.0 0.0 0.00 1.32 1.32 79 1000.1
20260502231906 13 330 0.0 0.0 0.00 1.32 1.32 78 999.9
20260502231404 13 330 3.2 3.2 0.00 1.32 1.32 77 999.9
20260502230901 13 330 1.6 1.6 0.00 1.32 1.32 77 999.8
20260502230359 13 330 0.0 1.6 0.00 1.32 1.32 77 999.8
20260502225855 14 330 0.0 0.0 0.00 1.32 1.32 76 999.7
20260502225347 14 330 1.6 3.2 0.00 1.32 1.32 76 999.7
20260502224844 14 331 3.2 3.2 0.00 1.32 1.32 75 999.7
20260502224340 15 331 0.0 0.0 0.00 1.32 1.32 76 999.8
20260502223837 14 331 1.6 1.6 0.00 1.32 1.32 75 1000.0
20260502223335 15 331 1.6 1.6 0.00 1.32 1.32 74 1000.0
20260502222832 15 331 4.8 4.8 0.00 1.32 1.32 76 999.9
20260502222330 14 331 0.0 0.0 0.00 1.32 1.32 76 1000.1
20260502221825 14 331 1.6 1.6 0.00 1.32 1.32 76 1000.0
20260502221322 15 331 0.0 1.6 0.00 1.32 1.32 75 1000.1
20260502220820 15 332 3.2 3.2 0.00 1.32 1.32 74 1000.0
20260502220315 15 332 3.2 3.2 0.00 1.32 1.32 74 999.9
20260502215812 15 332 3.2 4.8 0.00 1.32 1.32 75 1000.1
20260502215309 13 331 6.4 9.7 0.00 1.32 1.32 76 1000.0
20260502214806 14 331 9.7 11.3 0.00 1.32 1.32 75 1000.0
20260502214302 13 331 3.2 3.2 0.00 1.32 1.32 77 1000.1
20260502213759 13 331 1.6 3.2 0.00 1.32 1.32 77 999.5
20260502213256 13 331 1.6 3.2 0.00 1.32 1.32 77 999.8
20260502212755 13 331 3.2 3.2 0.00 1.32 1.32 77 999.6
20260502212253 13 331 4.8 8.0 0.00 1.32 1.32 77 999.5
20260502211749 14 331 8.0 9.7 0.00 1.32 1.32 75 999.5
20260502211246 13 331 1.6 4.8 0.00 1.32 1.32 76 999.4
20260502210743 13 331 1.6 1.6 0.00 1.32 1.32 76 999.7
20260502210240 13 331 6.4 9.7 0.00 1.32 1.32 76 999.5
20260502205737 14 331 4.8 4.8 0.00 1.32 1.32 74 999.6
20260502205228 13 331 0.0 1.6 0.00 1.32 1.32 77 999.8
20260502204726 13 331 4.8 4.8 0.00 1.32 1.32 76 999.7
20260502204223 13 331 4.8 4.8 0.00 1.32 1.32 76 999.8
20260502203720 13 331 3.2 4.8 0.00 1.32 1.32 78 1000.0
20260502203212 13 331 8.0 9.7 0.00 1.32 1.32 75 999.9
20260502202705 13 331 3.2 3.2 0.00 1.32 1.32 77 999.9
20260502202204 13 331 1.6 1.6 0.00 1.32 1.32 78 999.8
20260502201701 13 331 3.2 4.8 0.00 1.32 1.32 79 999.9
20260502201158 13 331 3.2 3.2 0.00 1.32 1.32 80 999.8
20260502200654 13 331 4.8 8.0 0.00 1.32 1.32 82 999.8